{"data":{"norad_id":53390,"intl_designator":"2022-097C","name":"STARLINK-4517","alt_names":[],"object_type":"PAYLOAD","status":"ACTIVE","operator":null,"country":"US","launch_date":"2022-08-10","launch_site_code":"AFETR","launch_vehicle":null,"mission":null,"orbit_class":"UNKNOWN","rcs_meters":null,"size_class":null,"mass_kg":null,"dimensions":null,"purposes":["comms"],"wikipedia_slug":null,"has_3d_model":false,"image_url":null,"decayed_at":null,"tle_current":{"epoch":"2026-09-19T19:56:53.131200Z","epoch_age_seconds":133140,"freshness":"FRESH","line1":"1 53390U 22097C   26262.83117050  .00000330  00000+0  20380-4 0  9995","line2":"2 53390  53.1602 325.2226 0001143  75.0961 285.0169 15.35392122228228","mean_motion":15.35392122,"eccentricity":0.0001143,"inclination_deg":53.1602,"raan_deg":325.2226,"arg_perigee_deg":75.0961,"mean_anomaly_deg":285.0169,"bstar":2.038e-5,"rev_number":22822,"period_min":93.787116617757,"perigee_km":458.9744613323,"apogee_km":460.53760367954,"semimajor_km":6837.8930325059,"source":"CELESTRAK","updated_at":"2026-09-20T09:00:40.223113Z"}}}